Abbotsford, British Columbia

12:22 AM PDT on July 26, 2017 (GMT -0700)
Abbotsford

Weather History for CYXX - February, 2014

Change the Weather History Date:

Wednesday, February 5, 2014

  Actual Average Record
Temperature  
Mean Temperature 24 °F -  
Max Temperature 28 °F 48 °F 57 °F (2016)
Min Temperature 21 °F 33 °F 19 °F (2017)
Degree Days  
Heating Degree Days 40    
Moisture  
Dew Point -4 °F    
Average Humidity 27    
Maximum Humidity 34    
Minimum Humidity 12    
Precipitation  
Precipitation 0.00 in 0.21 in - ()
Sea Level Pressure  
Sea Level Pressure 30.50 in    
Wind  
Wind Speed 15 mph ()    
Max Wind Speed 24 mph    
Max Gust Speed 34 mph    
Visibility 15.0 miles    
Events      
Averages and records for this station are not official NWS values.
T = Trace of Precipitation, MM = Missing Value Source: Averaged Metar Reports

Daily Weather History Graph

Daily Weather History Graph

Search for Another Location

Airport or City:

Trip Planner

Search our weather history database for the weather conditions in past years. The results will help you decide how hot, cold, wet, or windy it might be!

Date:

Astronomy

Feb. 05, 2014 Rise Set
Actual Time 7:34 AM PST 5:13 PM PST
Civil Twilight 7:00 AM PST 5:47 PM PST
Nautical Twilight 6:22 AM PST 6:24 PM PST
Astronomical Twilight 5:45 AM PST 7:01 PM PST
Moon 10:15 AM PST (2/5) No Moon Set
Length of Visible Light 10h 46m
Length of Day
9h 39m
Waxing Crescent, 40% of the Moon is Illuminated
Feb 5
Waxing Crescent
Feb 6
First Quarter
Feb 14
Full
Feb 22
Last Quarter
Mar 1
New

Hourly Weather History & Observations

Time (PST) Temp. Windchill Dew Point Humidity Pressure Visibility Wind Dir Wind Speed Gust Speed Precip Events Conditions
12:00 AM 24.8 °F 11.5 °F -0.4 °F 34% 30.51 in 15.0 mi NE 17.3 mph 24.2 mph N/A   Clear
1:00 AM 23.0 °F 11.1 °F -2.2 °F 33% 30.53 in 15.0 mi NE 12.7 mph 25.3 mph N/A   Clear
2:00 AM 23.0 °F 10.1 °F -2.2 °F 33% 30.54 in 15.0 mi NE 15.0 mph 21.9 mph N/A   Clear
3:00 AM 23.0 °F 10.1 °F -2.2 °F 33% 30.54 in 15.0 mi NE 15.0 mph 21.9 mph N/A   Clear
4:00 AM 23 °F - -2 °F 19% 30.54 in 15 mi NE 15.0 mph - -  
4:00 AM 23.0 °F 10.1 °F -2.2 °F 33% 30.54 in 15.0 mi NE 15.0 mph 23.0 mph N/A   Clear
5:00 AM 23.0 °F 10.1 °F -2.2 °F 33% 30.54 in 15.0 mi NE 15.0 mph 29.9 mph N/A   Clear
6:00 AM 23.0 °F 8.7 °F -4.0 °F 31% 30.54 in 15.0 mi NE 18.4 mph 29.9 mph N/A   Clear
7:00 AM 23.0 °F 8.3 °F -4.0 °F 31% 30.54 in 30.0 mi NE 19.6 mph 28.8 mph N/A   Partly Cloudy
8:00 AM 23.0 °F 8.7 °F -4.0 °F 31% 30.55 in 30.0 mi NE 18.4 mph 27.6 mph N/A   Partly Cloudy
9:00 AM 23.0 °F 6.9 °F -4.0 °F 31% 30.56 in 30.0 mi NE 24.2 mph 34.5 mph N/A   Partly Cloudy
10:00 AM 25 °F - -4 °F 14% 30.56 in 28 mi NNE 19.6 mph - -   Scattered Clouds
10:00 AM 24.8 °F 11.1 °F -4.0 °F 28% 30.56 in 30.0 mi NE 18.4 mph 27.6 mph N/A   Partly Cloudy
11:00 AM 26.6 °F 14.3 °F -4.0 °F 26% 30.55 in 30.0 mi NE 16.1 mph 24.2 mph N/A   Partly Cloudy
12:00 PM 26.6 °F 14.3 °F -4.0 °F 26% 30.53 in 30.0 mi NE 16.1 mph 31.1 mph N/A   Partly Cloudy
1:00 PM 26.6 °F 13.4 °F -5.8 °F 24% 30.52 in 30.0 mi NE 18.4 mph 29.9 mph N/A   Partly Cloudy
2:00 PM 28.4 °F 16.6 °F -4.0 °F 25% 30.49 in 30.0 mi NE 16.1 mph 29.9 mph N/A   Partly Cloudy
3:00 PM 28.4 °F 16.2 °F -4.0 °F 25% 30.48 in 30.0 mi NE 17.3 mph 29.9 mph N/A   Partly Cloudy
4:00 PM 27 °F - -5 °F 12% 30.48 in 28 mi NE 17.3 mph - -   Scattered Clouds
4:00 PM 26.6 °F 14.3 °F -5.8 °F 24% 30.47 in 30.0 mi NE 16.1 mph 27.6 mph N/A   Partly Cloudy
5:00 PM 24.8 °F 11.9 °F -5.8 °F 26% 30.47 in 30.0 mi NE 16.1 mph 27.6 mph N/A   Partly Cloudy
6:00 PM 24.8 °F 9.3 °F -5.8 °F 26% 30.46 in 15.0 mi NNE 24.2 mph 29.9 mph N/A   Clear
7:00 PM 23.0 °F 10.6 °F -5.8 °F 28% 30.45 in 15.0 mi NNE 13.8 mph 31.1 mph N/A   Clear
8:00 PM 23.0 °F 10.1 °F -5.8 °F 28% 30.44 in 15.0 mi NE 15.0 mph 25.3 mph N/A   Clear
9:00 PM 23.0 °F 10.6 °F -5.8 °F 28% 30.43 in 15.0 mi NE 13.8 mph 23.0 mph N/A   Clear
10:00 PM 23 °F - -7 °F 13% 30.42 in 15 mi NE 13.8 mph - -  
10:00 PM 23.0 °F 11.1 °F -7.6 °F 26% 30.42 in 15.0 mi NE 12.7 mph 20.7 mph N/A   Clear
11:00 PM 23.0 °F 10.6 °F -7.6 °F 26% 30.40 in 15.0 mi NE 13.8 mph 20.7 mph N/A   Clear